GW5374 Weather Reports


time (UTC)temp
F
wind
direction
speed
knots
gust
knots
rain 1hr
in
rain 24hr
in
rain mn
in
humidity
%
barometer
mb
20260506025507 77 209 0.0 6.1 0.00 0.00 0.00 83 1008.3
20260506025004 78 272 0.9 6.1 0.00 0.00 0.00 83 1008.3
20260506024527 78 209 0.9 2.6 0.00 0.00 0.00 82 1008.1
20260506024004 78 236 0.9 7.0 0.00 0.00 0.00 81 1008.0
20260506023504 78 200 0.0 7.0 0.00 0.00 0.00 81 1007.8
20260506023015 78 188 0.9 3.5 0.00 0.00 0.00 80 1007.6
20260506022503 78 236 0.0 1.7 0.00 0.00 0.00 80 1007.5
20260506022013 79 209 0.0 2.6 0.00 0.00 0.00 79 1007.5
20260506021522 79 203 0.9 2.6 0.00 0.00 0.00 79 1007.5
20260506021007 79 221 0.0 1.7 0.00 0.00 0.00 79 1007.4
20260506020508 79 144 0.0 4.3 0.00 0.00 0.00 79 1007.3
20260506020025 79 239 0.9 4.3 0.00 0.00 0.00 79 1007.1
20260506015511 79 224 0.0 3.5 0.00 0.00 0.00 79 1007.2
20260506015011 79 163 0.0 2.6 0.00 0.00 0.00 79 1007.2
20260506014527 79 197 0.0 3.5 0.00 0.00 0.00 78 1007.2
20260506014004 79 188 0.9 3.5 0.00 0.00 0.00 78 1007.1
20260506013504 79 206 0.0 5.2 0.00 0.00 0.00 78 1007.1
20260506013012 79 248 0.9 5.2 0.00 0.00 0.00 78 1007.1
20260506012505 80 161 0.9 3.5 0.00 0.00 0.00 77 1007.1
20260506012007 80 209 0.0 2.6 0.00 0.00 0.00 77 1007.0
20260506011541 80 169 0.9 3.5 0.00 0.00 0.00 77 1007.0
20260506011007 80 196 0.9 3.5 0.00 0.00 0.00 77 1007.1
20260506010511 80 214 0.0 2.6 0.00 0.00 0.00 76 1007.1
20260506010004 80 202 0.0 3.5 0.00 0.00 0.00 77 1007.1
20260506005501 80 196 0.0 3.5 0.00 0.00 0.00 76 1007.1
20260506005002 81 194 0.0 2.6 0.00 0.00 0.00 76 1007.1
20260506004507 81 174 0.9 1.7 0.00 0.00 0.00 76 1007.1
20260506004003 81 200 0.0 1.7 0.00 0.00 0.00 76 1007.1
20260506003503 81 166 0.0 1.7 0.00 0.00 0.00 75 1007.1
20260506003013 81 200 0.0 1.7 0.00 0.00 0.00 75 1007.1
20260506002504 81 203 0.0 2.6 0.00 0.00 0.00 76 1007.1
20260506002006 81 196 0.0 2.6 0.00 0.00 0.00 75 1007.1
20260506001512 81 128 0.0 2.6 0.00 0.00 0.00 75 1007.1
20260506001002 81 204 0.0 1.7 0.00 0.00 0.00 74 1007.0
20260506000506 82 194 0.0 1.7 0.00 0.00 0.00 74 1007.1
20260506000002 82 219 0.0 1.7 0.00 0.00 0.00 73 1007.0
20260505235502 82 177 0.0 1.7 0.00 0.00 0.00 73 1006.9
20260505235003 82 225 0.0 1.7 0.00 0.00 0.00 73 1006.9
20260505234504 82 246 0.9 2.6 0.00 0.00 0.00 73 1006.8
20260505234005 82 202 0.9 5.2 0.00 0.00 0.00 72 1006.8
20260505233501 82 215 0.0 7.0 0.00 0.00 0.00 73 1006.6
20260505233008 82 226 0.9 7.0 0.00 0.00 0.00 73 1006.7
20260505232505 82 229 0.9 2.6 0.00 0.00 0.00 72 1006.7
20260505232003 82 221 0.9 2.6 0.00 0.00 0.00 72 1006.7
20260505231514 82 236 0.0 1.7 0.00 0.00 0.00 72 1006.7
20260505231006 82 221 0.0 1.7 0.00 0.00 0.00 71 1006.6
20260505230507 82 209 0.0 2.6 0.00 0.00 0.00 71 1006.6
20260505230042 82 255 0.0 2.6 0.00 0.00 0.00 71 1006.6
20260505225505 82 233 0.0 2.6 0.00 0.00 0.00 71 1006.6
20260505225003 82 189 0.9 7.8 0.00 0.00 0.00 71 1006.5
20260505224504 83 254 0.0 7.8 0.00 0.00 0.00 70 1006.6
20260505224003 83 209 0.9 5.2 0.00 0.00 0.00 70 1006.5
20260505223503 83 212 0.9 5.2 0.00 0.00 0.00 69 1006.5
20260505223005 83 211 1.7 5.2 0.00 0.00 0.00 70 1006.4
20260505222505 83 166 0.0 1.7 0.00 0.00 0.00 70 1006.4
20260505222005 83 202 0.0 1.7 0.00 0.00 0.00 69 1006.5
20260505221514 83 221 0.0 6.1 0.00 0.00 0.00 70 1006.6
20260505221006 83 239 0.9 6.1 0.00 0.00 0.00 69 1006.6
20260505220506 83 185 0.9 4.3 0.00 0.00 0.00 69 1006.6
20260505220015 83 237 0.9 5.2 0.00 0.00 0.00 69 1006.7
20260505215505 83 248 0.9 5.2 0.00 0.00 0.00 69 1006.6
20260505215007 83 149 0.9 2.6 0.00 0.00 0.00 70 1006.8
20260505214504 82 232 0.9 2.6 0.00 0.00 0.00 69 1007.0
20260505214003 83 269 0.9 3.5 0.00 0.00 0.00 69 1007.0
20260505213506 83 90 0.0 3.5 0.00 0.00 0.00 69 1007.0
20260505213006 83 288 0.9 2.6 0.00 0.00 0.00 69 1007.0
20260505212502 83 280 0.0 3.5 0.00 0.00 0.00 70 1007.1
20260505212008 82 248 0.0 3.5 0.00 0.00 0.00 71 1007.3
20260505211518 82 234 0.0 2.6 0.00 0.00 0.00 71 1007.3
20260505211005 82 136 0.0 2.6 0.00 0.00 0.00 73 1007.2
20260505210505 82 207 0.9 3.5 0.00 0.00 0.00 72 1007.2
20260505210017 82 82 0.9 2.6 0.00 0.00 0.00 71 1007.4
20260505205509 82 265 0.9 3.5 0.00 0.00 0.00 70 1007.4
20260505205005 83 240 0.9 3.5 0.00 0.00 0.00 70 1007.5
20260505204519 83 211 0.0 1.7 0.00 0.00 0.00 72 1007.4
20260505204007 82 222 0.0 7.0 0.00 0.00 0.00 73 1007.4
20260505203506 82 246 1.7 7.0 0.00 0.00 0.00 73 1007.5
20260505203008 82 139 0.9 3.5 0.00 0.00 0.00 72 1007.8
20260505202503 82 182 0.9 6.1 0.00 0.00 0.00 73 1007.8
20260505202003 82 250 0.9 6.1 0.00 0.00 0.00 72 1007.9
20260505201506 82 263 1.7 7.8 0.00 0.00 0.00 73 1007.9
20260505201003 81 232 0.0 7.8 0.00 0.00 0.00 73 1008.1
20260505200503 81 162 1.7 6.1 0.00 0.00 0.00 74 1008.1
20260505200009 81 225 0.9 7.0 0.00 0.00 0.00 74 1008.2
20260505195505 81 188 0.9 7.0 0.00 0.00 0.00 74 1008.4
20260505195003 81 165 0.0 5.2 0.00 0.00 0.00 75 1008.4
20260505194517 81 254 0.0 5.2 0.00 0.00 0.00 74 1008.4
20260505194007 81 259 0.9 2.6 0.00 0.00 0.00 74 1008.6
20260505193509 80 257 0.9 4.3 0.00 0.00 0.00 74 1008.6
20260505193025 80 226 0.0 4.3 0.00 0.00 0.00 76 1008.7
20260505192507 80 229 1.7 4.3 0.00 0.00 0.00 75 1008.6
20260505192012 80 231 0.9 4.3 0.00 0.00 0.00 75 1008.7
20260505191503 80 304 0.9 1.7 0.00 0.00 0.00 73 1008.7
20260505191004 80 205 0.0 1.7 0.00 0.00 0.00 75 1008.6
20260505190503 81 227 0.0 4.3 0.00 0.00 0.00 75 1008.7
20260505190012 80 265 0.0 4.3 0.00 0.00 0.00 75 1008.8
20260505185507 80 208 0.9 4.3 0.00 0.00 0.00 76 1008.8
20260505185004 80 198 0.9 5.2 0.00 0.00 0.00 76 1008.9
20260505184519 79 258 0.9 5.2 0.00 0.00 0.00 77 1008.9
20260505184008 78 229 0.0 3.5 0.00 0.00 0.00 77 1009.0
20260505183508 78 202 1.7 3.5 0.00 0.00 0.00 78 1009.0
20260505183020 78 205 0.9 2.6 0.00 0.00 0.00 77 1009.1
20260505182507 78 285 0.0 2.6 0.00 0.00 0.00 77 1009.2
20260505182012 78 294 0.9 2.6 0.00 0.00 0.00 79 1009.3
20260505181523 77 244 0.9 2.6 0.00 0.00 0.00 80 1009.3
20260505181012 77 238 0.0 2.6 0.00 0.00 0.00 80 1009.3
20260505180507 76 261 0.9 2.6 0.00 0.00 0.00 79 1009.4
20260505180011 76 282 0.9 1.7 0.00 0.00 0.00 80 1009.5
20260505175503 76 271 0.9 2.6 0.00 0.00 0.00 80 1009.6
20260505175005 76 182 0.9 2.6 0.00 0.00 0.00 81 1009.7
20260505174516 76 257 0.9 1.7 0.00 0.00 0.00 81 1009.7
20260505174009 75 277 0.9 2.6 0.00 0.00 0.00 81 1009.7
20260505173510 75 261 0.9 2.6 0.00 0.00 0.00 81 1009.8
20260505173019 75 194 0.9 2.6 0.00 0.00 0.00 82 1009.8
20260505172509 75 218 0.0 1.7 0.00 0.00 0.00 82 1009.9
20260505172011 75 234 0.0 1.7 0.00 0.00 0.00 83 1009.9
20260505171521 75 260 0.0 1.7 0.00 0.00 0.00 83 1009.8
20260505171011 74 221 0.0 1.7 0.00 0.00 0.00 83 1009.8
20260505170510 74 277 0.0 1.7 0.00 0.00 0.00 83 1009.9
20260505170024 74 284 0.0 1.7 0.00 0.00 0.00 83 1009.8
20260505165511 74 294 0.0 1.7 0.00 0.00 0.00 83 1009.9
20260505165004 74 248 0.0 1.7 0.00 0.00 0.00 85 1009.9
20260505164511 74 240 0.0 1.7 0.00 0.00 0.00 85 1009.8
20260505164004 73 248 0.0 1.7 0.00 0.00 0.00 85 1009.8
20260505163504 73 267 0.0 1.7 0.00 0.00 0.00 86 1009.8
20260505163017 73 235 0.0 1.7 0.00 0.00 0.00 86 1009.8
20260505162504 73 212 0.0 1.7 0.00 0.00 0.00 86 1009.7
20260505162007 72 242 0.9 1.7 0.00 0.00 0.00 86 1009.7
20260505161520 72 205 0.0 1.7 0.00 0.00 0.00 87 1009.8
20260505161007 72 227 0.0 1.7 0.00 0.00 0.00 87 1009.8
20260505160507 72 261 0.0 1.7 0.00 0.00 0.00 87 1009.9
20260505153004 71 278 0.0 1.7 0.00 0.00 0.00 88 1010.1
20260505152501 71 249 0.0 1.7 0.00 0.00 0.00 88 1010.0
20260505152003 71 309 0.0 1.7 0.00 0.00 0.00 88 1009.9
20260505151503 71 214 0.9 1.7 0.00 0.00 0.00 87 1009.8
20260505151004 71 227 0.0 1.7 0.00 0.00 0.00 87 1009.7
20260505150503 71 265 0.0 1.7 0.00 0.00 0.00 88 1009.8
20260505140503 71 296 0.0 1.7 0.00 0.00 0.00 88 1009.3
20260505125004 70 290 0.0 1.7 0.00 0.00 0.00 89 1008.7
20260505124504 70 268 0.0 1.7 0.00 0.00 0.00 89 1008.6
20260505124003 70 261 0.9 1.7 0.00 0.00 0.00 88 1008.4
20260505123504 70 185 0.9 1.7 0.00 0.00 0.00 88 1008.3
20260505123009 70 218 0.9 1.7 0.00 0.00 0.00 88 1008.2
20260505122504 70 275 0.9 1.7 0.00 0.00 0.00 88 1008.2
20260505122007 70 244 0.9 1.7 0.00 0.00 0.00 88 1008.2
20260505121526 70 266 0.0 1.7 0.00 0.00 0.00 88 1008.1
20260505121007 70 251 0.9 1.7 0.00 0.00 0.00 88 1008.1
20260505120503 70 230 0.9 1.7 0.00 0.00 0.00 88 1008.0
20260505120003 70 245 0.9 2.6 0.00 0.00 0.00 88 1007.8
20260505115502 70 350 0.9 2.6 0.00 0.00 0.00 88 1007.8
20260505115003 70 238 0.9 1.7 0.00 0.00 0.00 88 1008.0
20260505114502 70 247 0.0 1.7 0.00 0.00 0.00 88 1007.9
20260505114007 70 284 0.9 2.6 0.00 0.00 0.00 88 1008.1
20260505113503 70 244 0.9 2.6 0.00 0.00 0.00 88 1008.0
20260505113011 70 262 0.9 2.6 0.00 0.00 0.00 88 1008.1
20260505112503 70 283 0.0 2.6 0.00 0.00 0.00 88 1008.0
20260505112003 70 266 0.9 1.7 0.00 0.00 0.00 88 1007.8
20260505111513 70 243 0.9 2.6 0.00 0.00 0.00 87 1007.9
20260505111004 70 263 0.9 2.6 0.00 0.00 0.00 87 1008.2
20260505110508 70 229 0.9 1.7 0.00 0.00 0.00 87 1008.2
20260505102006 70 273 0.9 1.7 0.00 0.00 0.00 87 1008.2
20260505101511 70 219 0.9 1.7 0.00 0.00 0.00 87 1008.3
20260505101003 70 206 0.9 2.6 0.00 0.00 0.00 86 1008.3
20260505100503 70 228 0.0 2.6 0.00 0.00 0.00 86 1008.3
20260505100023 70 250 0.9 1.7 0.00 0.00 0.00 86 1008.4
20260505095505 70 269 0.0 1.7 0.00 0.00 0.00 86 1008.3
20260505095010 70 257 0.0 1.7 0.00 0.00 0.00 86 1008.1
20260505094518 70 223 0.0 1.7 0.00 0.00 0.00 86 1008.1
20260505094006 70 250 0.9 1.7 0.00 0.00 0.00 86 1008.2
20260505093503 70 241 0.9 1.7 0.00 0.00 0.00 86 1008.3
20260505093013 70 227 0.9 1.7 0.00 0.00 0.00 86 1008.3
20260505092504 70 259 0.0 2.6 0.00 0.00 0.00 86 1008.4
20260505092004 70 261 0.9 2.6 0.00 0.00 0.00 86 1008.2
20260505091516 70 234 0.9 2.6 0.00 0.00 0.00 86 1008.2
20260505091004 70 220 0.9 1.7 0.00 0.00 0.00 86 1008.5
20260505090503 70 246 0.0 3.5 0.00 0.00 0.00 86 1008.6
20260505090012 70 261 0.9 3.5 0.00 0.00 0.00 86 1008.5
20260505085506 70 263 0.9 1.7 0.00 0.00 0.00 86 1008.5
20260505085011 70 229 0.9 1.7 0.00 0.00 0.00 86 1008.5
20260505084523 70 289 0.0 1.7 0.00 0.00 0.00 86 1008.5
20260505084006 70 281 0.9 2.6 0.00 0.00 0.00 86 1008.6
20260505083509 70 229 0.9 2.6 0.00 0.00 0.00 86 1008.5
20260505083033 70 217 0.9 1.7 0.00 0.00 0.00 86 1008.6
20260505082507 70 215 0.9 3.5 0.00 0.00 0.00 86 1008.8
20260505082003 70 245 0.9 3.5 0.00 0.00 0.00 86 1008.7
20260505081504 70 288 0.9 2.6 0.00 0.00 0.00 86 1008.7
20260505081004 70 220 0.9 2.6 0.00 0.00 0.00 86 1008.7
20260505080504 70 253 0.9 2.6 0.00 0.00 0.00 86 1008.8
20260505080010 70 225 0.9 2.6 0.00 0.00 0.00 85 1008.9
20260505075503 70 277 0.9 2.6 0.00 0.00 0.00 85 1008.9
20260505075005 70 263 0.9 1.7 0.00 0.00 0.00 85 1009.0
20260505074516 70 250 0.9 1.7 0.00 0.00 0.00 85 1009.2
20260505074007 70 254 0.9 3.5 0.00 0.00 0.00 85 1009.1
20260505073508 70 227 0.9 3.5 0.00 0.00 0.00 85 1009.1
20260505073022 70 320 0.9 3.5 0.00 0.00 0.00 85 1009.3
20260505072511 70 220 0.9 2.6 0.00 0.00 0.00 85 1009.4
20260505072008 70 181 0.9 2.6 0.00 0.00 0.00 85 1009.3
20260505071535 70 232 0.9 2.6 0.00 0.00 0.00 85 1009.5
20260505071013 70 274 0.9 2.6 0.00 0.00 0.00 84 1009.6
20260505070506 70 241 0.9 3.5 0.00 0.00 0.00 85 1009.5
20260505070006 70 268 0.9 3.5 0.00 0.00 0.00 84 1009.5
20260505065503 70 201 0.9 3.5 0.00 0.00 0.00 84 1009.6
20260505065010 70 311 0.9 3.5 0.00 0.00 0.00 84 1009.7
20260505064514 70 229 0.0 3.5 0.00 0.00 0.00 84 1009.8
20260505064004 70 252 0.9 3.5 0.00 0.00 0.00 84 1009.8
20260505063508 70 217 0.9 1.7 0.00 0.00 0.00 84 1009.7
20260505063029 70 245 0.9 1.7 0.00 0.00 0.00 84 1010.0
20260505062507 71 237 0.9 1.7 0.00 0.00 0.00 84 1010.1
20260505062003 71 232 0.9 8.7 0.00 0.00 0.00 84 1010.2
20260505061505 71 264 1.7 8.7 0.00 0.00 0.00 84 1010.2
20260505061003 70 231 0.0 3.5 0.00 0.00 0.00 84 1010.1
20260505060502 70 238 0.0 4.3 0.00 0.00 0.00 84 1010.2
20260505060007 71 146 0.9 3.5 0.00 0.00 0.00 84 1010.2
20260505055503 71 188 0.9 2.6 0.00 0.00 0.00 84 1010.2
20260505055006 71 192 0.9 4.3 0.00 0.00 0.00 83 1010.2
20260505054508 71 244 0.9 4.3 0.00 0.00 0.00 83 1010.0
20260505054008 71 238 0.9 2.6 0.00 0.00 0.00 83 1010.1
20260505053507 71 225 0.9 3.5 0.00 0.00 0.00 83 1010.1
20260505053018 71 238 0.9 3.5 0.00 0.00 0.00 83 1010.1
20260505052507 71 238 0.9 3.5 0.00 0.00 0.00 83 1010.1
20260505052009 71 196 0.9 6.1 0.00 0.00 0.00 83 1010.2
20260505051534 71 281 0.9 6.1 0.00 0.00 0.00 83 1010.2
20260505051009 71 224 0.9 3.5 0.00 0.00 0.00 83 1010.1
20260505050503 71 194 0.9 3.5 0.00 0.00 0.00 83 1009.9
20260505041540 72 256 0.9 2.6 0.00 0.00 0.00 81 1010.0
20260505041009 72 219 0.9 1.7 0.00 0.00 0.00 80 1010.0
20260505040509 73 234 0.0 2.6 0.00 0.00 0.00 80 1010.0
20260505040022 73 183 0.9 4.3 0.00 0.00 0.00 80 1010.0
20260505035507 73 207 0.9 4.3 0.00 0.00 0.00 79 1010.1
20260505035003 73 169 0.9 2.6 0.00 0.00 0.00 79 1010.0
20260505034510 73 240 0.9 3.5 0.00 0.00 0.00 79 1010.0
20260505034003 73 226 0.9 3.5 0.00 0.00 0.00 79 1009.9
20260505033504 73 234 0.9 3.5 0.00 0.00 0.00 78 1009.9
20260505033012 73 246 0.9 4.3 0.00 0.00 0.00 78 1009.8
20260505032508 73 198 0.9 5.2 0.00 0.00 0.00 78 1009.8
20260505032007 74 246 0.9 7.8 0.00 0.00 0.00 78 1009.9
20260505031526 74 236 1.7 7.8 0.00 0.00 0.00 77 1009.9
20260505031007 74 224 0.9 3.5 0.00 0.00 0.00 77 1010.1
20260505030509 74 207 0.0 3.5 0.00 0.00 0.00 77 1010.1
20260505030020 74 219 0.9 4.3 0.00 0.00 0.00 77 1010.1